Salem, IL

6:10 AM CDT on October 01, 2016 (GMT -0500)
Salem-Leckrone

Weather History for KSLO - November, 2012

Change the Weather History Date:

Friday, November 2, 2012

  Actual Average Record
Temperature  
Mean Temperature 46 °F -  
Max Temperature 54 °F 61 °F 82 °F (1987)
Min Temperature 37 °F 43 °F 25 °F (1963)
Degree Days  
Heating Degree Days 20    
Moisture  
Dew Point 32 °F    
Average Humidity 57    
Maximum Humidity 80    
Minimum Humidity 39    
Precipitation  
Precipitation 0.00 in - - ()
Sea Level Pressure  
Sea Level Pressure 30.02 in    
Wind  
Wind Speed 4 mph (NNE)    
Max Wind Speed 9 mph    
Max Gust Speed -    
Visibility 9 miles    
Events      
Averages and records for this station are not official NWS values.
T = Trace of Precipitation, MM = Missing Value Source: NWS Daily Summary

Daily Weather History Graph

Daily Weather History Graph

Search for Another Location

Airport or City:

Trip Planner

Search our weather history database for the weather conditions in past years. The results will help you decide how hot, cold, wet, or windy it might be!

Date:

Astronomy

Nov. 02, 2012 Rise Set
Actual Time 7:24 AM CDT 5:54 PM CDT
Civil Twilight 6:56 AM CDT 6:21 PM CDT
Nautical Twilight 6:25 AM CDT 6:53 PM CDT
Astronomical Twilight 5:54 AM CDT 7:24 PM CDT
Moon 8:42 PM CDT (11/2) 10:43 AM CDT (11/2)
Length of Visible Light 11h 25m
Length of Day
10h 29m
Waning Gibbous, 87% of the Moon is Illuminated
Nov 2
Waning Gibbous
Nov 6
Last Quarter
Nov 13
New
Nov 20
First Quarter
Nov 28
Full

Hourly Weather History & Observations

Time (CDT) Temp. Windchill Dew Point Humidity Pressure Visibility Wind Dir Wind Speed Gust Speed Precip Events Conditions
12:15 AM 46.6 °F - 33.6 °F 61% 29.88 in 10.0 mi WSW 5.8 mph - N/A   Clear
12:35 AM 47.3 °F - 34.0 °F 60% 29.89 in 10.0 mi Calm Calm - N/A   Clear
12:55 AM 47.1 °F - 34.2 °F 61% 29.89 in 10.0 mi WNW 5.8 mph - N/A   Clear
1:15 AM 46.4 °F - 34.3 °F 63% 29.89 in 10.0 mi Calm Calm - N/A   Clear
1:35 AM 47.1 °F - 33.8 °F 60% 29.89 in 10.0 mi North 4.6 mph - N/A   Clear
1:55 AM 45.0 °F 40.6 °F 35.1 °F 68% 29.89 in 10.0 mi North 8.1 mph - N/A   Clear
2:15 AM 45.1 °F 42.0 °F 34.9 °F 67% 29.90 in 10.0 mi North 5.8 mph - N/A   Clear
2:35 AM 44.6 °F 41.4 °F 35.6 °F 71% 29.91 in 10.0 mi North 5.8 mph - N/A   Clear
2:55 AM 44.1 °F 41.5 °F 34.3 °F 69% 29.91 in 10.0 mi North 4.6 mph - N/A   Clear
3:15 AM 43.5 °F 40.9 °F 34.0 °F 69% 29.91 in 10.0 mi North 4.6 mph - N/A   Clear
3:35 AM 43.7 °F 40.3 °F 33.8 °F 68% 29.92 in 10.0 mi NNW 5.8 mph - N/A   Clear
3:55 AM 44.1 °F 40.8 °F 33.3 °F 66% 29.92 in 10.0 mi North 5.8 mph - N/A   Clear
4:15 AM 43.7 °F 39.7 °F 32.9 °F 66% 29.93 in 10.0 mi North 6.9 mph - N/A   Clear
4:35 AM 43.0 °F 38.8 °F 32.2 °F 66% 29.94 in 10.0 mi North 6.9 mph - N/A   Clear
4:55 AM 42.1 °F 38.4 °F 32.0 °F 67% 29.95 in 10.0 mi North 5.8 mph - N/A   Clear
5:15 AM 40.6 °F 36.0 °F 32.0 °F 71% 29.96 in 10.0 mi North 6.9 mph - N/A   Clear
5:35 AM 40.1 °F 35.3 °F 32.0 °F 73% 29.97 in 10.0 mi North 6.9 mph - N/A   Clear
5:55 AM 38.5 °F 32.7 °F 31.6 °F 76% 29.97 in 10.0 mi North 8.1 mph - N/A   Clear
6:15 AM 39.2 °F 34.2 °F 32.0 °F 75% 29.98 in 10.0 mi North 6.9 mph - N/A   Clear
6:35 AM 39.9 °F 34.5 °F 31.5 °F 72% 29.99 in 10.0 mi North 8.1 mph - N/A   Clear
6:55 AM 40.3 °F 35.5 °F 31.1 °F 70% 30.00 in 10.0 mi NNE 6.9 mph - N/A   Clear
7:15 AM 40.1 °F 34.7 °F 31.1 °F 70% 30.01 in 10.0 mi North 8.1 mph - N/A   Clear
7:35 AM 38.1 °F 33.7 °F 30.7 °F 75% 30.02 in 10.0 mi North 5.8 mph - N/A   Clear
7:55 AM 37.2 °F - 30.6 °F 77% 30.03 in 7.0 mi Calm Calm - N/A   Clear
8:15 AM 37.6 °F 35.1 °F 31.8 °F 80% 30.04 in 7.0 mi North 3.5 mph - N/A   Clear
8:35 AM 39.7 °F 36.5 °F 32.0 °F 74% 30.05 in 7.0 mi North 4.6 mph - N/A   Clear
8:55 AM 41.0 °F 36.4 °F 31.5 °F 69% 30.06 in 10.0 mi NNE 6.9 mph - N/A   Clear
9:15 AM 42.8 °F 37.5 °F 30.2 °F 61% 30.06 in 10.0 mi North 9.2 mph - N/A   Clear
9:35 AM 44.4 °F 41.2 °F 30.7 °F 59% 30.07 in 10.0 mi NNE 5.8 mph - N/A   Clear
9:55 AM 45.5 °F 41.8 °F 29.7 °F 54% 30.08 in 10.0 mi NE 6.9 mph - N/A   Clear
10:15 AM 46.6 °F - 30.2 °F 53% 30.08 in 10.0 mi NE 6.9 mph - N/A   Clear
10:35 AM 47.3 °F - 31.1 °F 53% 30.07 in 10.0 mi NE 5.8 mph - N/A   Clear
10:55 AM 48.2 °F - 32.0 °F 54% 30.07 in 10.0 mi NE 8.1 mph - N/A   Clear
11:15 AM 48.9 °F - 32.2 °F 52% 30.08 in 10.0 mi NNE 9.2 mph - N/A   Clear
11:35 AM 49.5 °F - 32.2 °F 51% 30.08 in 10.0 mi ENE 4.6 mph - N/A   Clear
11:55 AM 49.6 °F - 31.8 °F 50% 30.08 in 10.0 mi ENE 3.5 mph - N/A   Clear
12:15 PM 50.2 °F - 31.3 °F 48% 30.08 in 10.0 mi NNE 4.6 mph - N/A   Clear
12:35 PM 51.1 °F - 30.9 °F 46% 30.08 in 10.0 mi NNE 3.5 mph - N/A   Clear
12:55 PM 51.8 °F - 30.0 °F 43% 30.07 in 10.0 mi North 3.5 mph - N/A   Clear
1:15 PM 52.0 °F - 29.3 °F 42% 30.07 in 5.0 mi Calm Calm - N/A   Haze
1:35 PM 52.5 °F - 30.4 °F 43% 30.07 in 10.0 mi Calm Calm - N/A   Clear
1:55 PM 52.5 °F - 29.3 °F 41% 30.06 in 1.5 mi Calm Calm - N/A   Haze
2:15 PM 52.7 °F - 29.1 °F 40% 30.05 in 10.0 mi Calm Calm - N/A   Clear
2:35 PM 53.8 °F - 30.7 °F 41% 30.05 in 10.0 mi Calm Calm - N/A   Clear
2:55 PM 54.1 °F - 29.3 °F 39% 30.05 in 4.0 mi Calm Calm - N/A   Haze
3:15 PM 53.8 °F - 29.7 °F 40% 30.05 in 10.0 mi Calm Calm - N/A   Clear
3:35 PM 54.0 °F - 30.6 °F 41% 30.04 in 10.0 mi Calm Calm - N/A   Clear
3:55 PM 53.8 °F - 29.1 °F 39% 30.05 in 10.0 mi ENE 3.5 mph - N/A   Clear
4:15 PM 54.0 °F - 29.7 °F 39% 30.05 in 10.0 mi NE 6.9 mph - N/A   Clear
4:35 PM 54.0 °F - 30.4 °F 41% 30.05 in 0.8 mi NNE 4.6 mph - N/A   Haze
4:55 PM 53.6 °F - 30.2 °F 41% 30.05 in 5.0 mi North 4.6 mph - N/A   Haze
5:15 PM 53.4 °F - 30.7 °F 42% 30.05 in 4.0 mi NNE 4.6 mph - N/A   Haze
5:35 PM 52.7 °F - 31.1 °F 44% 30.05 in 1.5 mi Calm Calm - N/A   Haze
5:55 PM 51.6 °F - 31.6 °F 46% 30.05 in 2.5 mi Calm Calm - N/A   Haze
6:15 PM 51.1 °F - 30.7 °F 46% 30.05 in 10.0 mi Calm Calm - N/A   Clear
6:35 PM 50.2 °F - 31.1 °F 48% 30.06 in 2.5 mi NE 3.5 mph - N/A   Haze
6:55 PM 49.1 °F - 32.0 °F 52% 30.07 in 10.0 mi Calm Calm - N/A   Clear
7:15 PM 47.5 °F - 31.8 °F 55% 30.06 in 10.0 mi Calm Calm - N/A   Clear
7:35 PM 46.4 °F - 33.8 °F 62% 30.07 in 10.0 mi Calm Calm - N/A   Clear
7:55 PM 43.9 °F - 33.4 °F 67% 30.07 in 3.0 mi Calm Calm - N/A   Haze
8:15 PM 44.6 °F - 32.4 °F 62% 30.06 in 7.0 mi Calm Calm - N/A   Clear
8:35 PM 46.4 °F - 31.5 °F 56% 30.06 in 10.0 mi Calm Calm - N/A   Clear
8:55 PM 46.9 °F - 31.3 °F 55% 30.06 in 10.0 mi Calm Calm - N/A   Clear
9:15 PM 46.4 °F - 31.1 °F 55% 30.06 in 10.0 mi Calm Calm - N/A   Clear
9:35 PM 46.9 °F - 31.1 °F 54% 30.06 in 10.0 mi Calm Calm - N/A   Clear
9:55 PM 46.4 °F - 31.3 °F 56% 30.07 in 10.0 mi Calm Calm - N/A   Clear
10:15 PM 46.6 °F - 32.0 °F 57% 30.08 in 7.0 mi Calm Calm - N/A   Clear
10:35 PM 46.2 °F - 32.4 °F 58% 30.08 in 7.0 mi Calm Calm - N/A   Clear
10:55 PM 46.6 °F - 32.0 °F 57% 30.07 in 10.0 mi Calm Calm - N/A   Clear
11:15 PM 46.8 °F - 32.0 °F 57% 30.08 in 7.0 mi East 3.5 mph - N/A   Clear
11:35 PM 46.4 °F 45.2 °F 32.0 °F 57% 30.08 in 5.0 mi ENE 3.5 mph - N/A   Haze
11:55 PM 46.4 °F 44.3 °F 31.8 °F 57% 30.08 in 5.0 mi ENE 4.6 mph - N/A   Haze